Regional Weather Roundup
Issued by NWS Goodland, KS

Home | Current Version | Previous Version | Text Only | Print | Product List | Glossary Off
Versions: 1 2 3 4 5 6 7 8 9 10 11 12 13 14 15 16 17 18 19 20 21 22 23 24 25 26 27 28 29 30 31 32 33 34 35 36 37 38 39 40 41 42 43 44 45 46 47 48 49 50

832
ASUS43 KGLD 281408
RWRGLD

GOODLAND FORECAST AREA HOURLY WEATHER ROUNDUP
NATIONAL WEATHER SERVICE GOODLAND KS
800 AM MDT SUN AUG 28 2016

...OFFICIAL OBSERVATIONS...

CITY           SKY/WX    TMP DP  RH WIND       PRES   REMARKS
GOODLAND KS    MOSUNNY   62  55  77 S5        30.12R
HILL CITY KS   CLOUDY    69  62  78 S3        30.10R
IMPERIAL NEB   SUNNY     66  60  81 SW6       30.10S
MCCOOK NEB     PTSUNNY   67  63  87 S6        30.09S
AKRON CO       SUNNY     64  52  64 S12       30.15R
BURLINGTON CO  SUNNY     67  53  61 SW13      30.14R
LIMON CO       SUNNY     59  56  89 N3        30.19F
$$

...UNOFFICIAL OBSERVATIONS...

CITY           SKY/WX    TMP DP  RH WIND       PRES   REMARKS
COLBY KS       MOSUNNY   66  64  94 CALM      30.14R
LENORA KS        N/A     67  32  27 MISG        N/A
NORTON KS      SUNNY     68  61  77 SE3       30.09F
SHARON SPRINGS   N/A     63  59  87 S6          N/A
TRENTON NEB      N/A     64  32  30 MISG        N/A
KIT CARSON CO    N/A     63  55  75 MISG        N/A
YUMA CO          N/A     66  59  79 W6          N/A
$$




USA.gov is the U.S. government's official web portal to all federal, state and local government web resources and services.